Weather History for LHKE - December, 2012

Change the Weather History Date:

Friday, December 7, 2012

  Actual Average (LHBP) Record (LHBP)
Temperature  
Mean Temperature 24 °F -  
Max Temperature 30 °F 37 °F 53 °F (2010)
Min Temperature 17 °F 26 °F 14 °F (2001)
Degree Days  
Heating Degree Days 42    
Moisture  
Dew Point 19 °F    
Average Humidity 78    
Maximum Humidity 93    
Minimum Humidity 59    
Precipitation  
Precipitation 0.00 in - - ()
Sea Level Pressure  
Sea Level Pressure 29.97 in    
Wind  
Wind Speed 6 mph ()    
Max Wind Speed 9 mph    
Max Gust Speed -    
Visibility 0.5 miles    
Events      
Averages and records for this station are not official NWS values.
T = Trace of Precipitation, MM = Missing Value Source: Averaged Metar Reports

Daily Weather History Graph

Daily Weather History Graph

Search for Another Location

Airport or City:

Trip Planner

Search our weather history database for the weather conditions in past years. The results will help you decide how hot, cold, wet, or windy it might be!

Date:

Astronomy

Dec. 07, 2012 Rise Set
Actual Time 7:12 AM CET 3:52 PM CET
Civil Twilight 6:37 AM CET 4:27 PM CET
Nautical Twilight 5:59 AM CET 5:05 PM CET
Astronomical Twilight 5:22 AM CET 5:42 PM CET
Moon No Moon Rise 12:00 PM CET (12/7)
Length of Visible Light 9h 49m
Length of Day
8h 39m
Last Quarter, 41% of the Moon is Illuminated
Dec 7
Last Quarter
Dec 13
New
Dec 20
First Quarter
Dec 28
Full
Jan 5
Last Quarter

Hourly Weather History & Observations

Time (CET) Temp. Windchill Dew Point Humidity Pressure Visibility Wind Dir Wind Speed Gust Speed Precip Events Conditions
12:15 AM 26.6 °F 17.7 °F 24.8 °F 93% 29.95 in - WNW 8.9 mph - N/A   Clear
12:45 AM 26.6 °F 17.7 °F 23.0 °F 86% 29.98 in - WNW 8.9 mph - N/A   Clear
1:15 AM 26.6 °F 17.7 °F 23.0 °F 86% 29.98 in - WNW 8.9 mph - N/A   Clear
1:45 AM 24.8 °F 15.5 °F 21.2 °F 86% 29.98 in - WNW 8.9 mph - N/A   Clear
2:15 AM 24.8 °F 15.5 °F 19.4 °F 80% 29.98 in - WNW 8.9 mph - N/A   Clear
2:45 AM 24.8 °F 15.5 °F 21.2 °F 86% 29.98 in - WNW 8.9 mph - N/A   Clear
3:15 AM 24.8 °F 15.5 °F 21.2 °F 86% 29.98 in - WNW 8.9 mph - N/A   Clear
3:45 AM 24.8 °F 17.1 °F 21.2 °F 86% 29.98 in - WNW 6.7 mph - N/A   Clear
4:15 AM 26.6 °F 17.7 °F 21.2 °F 80% 29.98 in - West 8.9 mph - N/A   Clear
4:45 AM 26.6 °F 19.2 °F 21.2 °F 80% 29.98 in - West 6.7 mph - N/A   Clear
5:15 AM 24.8 °F 15.5 °F 21.2 °F 86% 29.98 in - West 8.9 mph - N/A   Clear
5:45 AM - - - N/A% - - West 8.9 mph - N/A   Clear
6:15 AM 24.8 °F 15.5 °F 19.4 °F 80% 29.98 in - West 8.9 mph - N/A   Clear
6:45 AM 24.8 °F 15.5 °F 19.4 °F 80% 30.01 in - West 8.9 mph - N/A   Clear
7:15 AM 23.0 °F 13.2 °F 19.4 °F 86% 30.01 in - West 8.9 mph - N/A   Clear
7:45 AM 23.0 °F 13.2 °F 19.4 °F 86% 30.01 in - West 8.9 mph - N/A   Clear
8:15 AM 23.0 °F 17.1 °F 19.4 °F 86% 30.01 in - West 4.5 mph - N/A   Clear
8:45 AM - - - N/A% - - West 6.7 mph - N/A   Clear
9:15 AM 24.8 °F 19.2 °F 19.4 °F 80% 30.01 in - West 4.5 mph - N/A   Clear
9:45 AM 26.6 °F 21.3 °F 19.4 °F 74% 30.01 in - West 4.5 mph - N/A   Clear
10:15 AM 26.6 °F 17.7 °F 21.2 °F 80% 30.01 in - West 8.9 mph - N/A   Clear
10:45 AM 26.6 °F 19.2 °F 17.6 °F 69% 30.01 in - West 6.7 mph - N/A   Clear
11:15 AM 26.6 °F 19.2 °F 19.4 °F 74% 30.01 in - WNW 6.7 mph - N/A   Clear
11:45 AM - - - N/A% - - West 6.7 mph - N/A   Clear
12:15 PM 28.4 °F 23.4 °F 15.8 °F 59% 29.98 in - WNW 4.5 mph - N/A   Clear
12:45 PM 28.4 °F 23.4 °F 17.6 °F 64% 29.98 in - WNW 4.5 mph - N/A   Clear
1:15 PM 30.2 °F 25.5 °F 17.6 °F 60% 29.98 in - West 4.5 mph - N/A   Clear
1:45 PM 30.2 °F 25.5 °F 17.6 °F 60% 29.98 in - West 4.5 mph - N/A   Clear
2:15 PM 30.2 °F - 17.6 °F 60% 29.98 in - WSW 2.2 mph - N/A   Clear
2:45 PM - - - N/A% - - West 6.7 mph - N/A   Clear
3:15 PM 28.4 °F - 17.6 °F 64% 29.95 in - SW 2.2 mph - N/A   Clear
3:45 PM 28.4 °F - 17.6 °F 64% 29.95 in - SW 2.2 mph - N/A   Clear
4:15 PM 26.6 °F 21.3 °F 17.6 °F 69% 29.95 in - South 4.5 mph - N/A   Clear
4:45 PM 26.6 °F 21.3 °F 17.6 °F 69% 29.95 in - South 4.5 mph - N/A   Clear
5:15 PM 26.6 °F 21.3 °F 17.6 °F 69% 29.95 in - South 4.5 mph - N/A   Clear
5:45 PM - - - N/A% - 0.5 mi South 6.7 mph - N/A   Clear
6:15 PM 23.0 °F - 17.6 °F 80% 29.95 in - SSE 2.2 mph - N/A   Clear
6:45 PM 21.2 °F - 17.6 °F 86% 29.95 in - SE 2.2 mph - N/A   Clear
7:15 PM 17.6 °F - 15.8 °F 93% 29.95 in - SSE 2.2 mph - N/A   Clear
7:45 PM 21.2 °F - 17.6 °F 86% 29.95 in - SE 2.2 mph - N/A   Clear
8:15 PM 23.0 °F - 17.6 °F 80% 29.95 in - ESE 2.2 mph - N/A   Clear
8:45 PM - - - N/A% - 0.5 mi East 6.7 mph - N/A   Clear
9:15 PM 19.4 °F 12.9 °F 15.8 °F 86% 29.95 in - East 4.5 mph - N/A   Clear
9:45 PM 21.2 °F 15.0 °F 17.6 °F 86% 29.95 in - East 4.5 mph - N/A   Clear
10:15 PM 23.0 °F 14.9 °F 17.6 °F 80% 29.95 in - East 6.7 mph - N/A   Clear
10:45 PM 21.2 °F 12.7 °F 15.8 °F 80% 29.95 in - East 6.7 mph - N/A   Clear
11:15 PM 23.0 °F 14.9 °F 17.6 °F 80% 29.95 in - East 6.7 mph - N/A   Clear
11:45 PM - - - N/A% - 0.5 mi North - - N/A   Unknown